Weather in Esch-sur-Sure

Luxembourg     49°54′35″N   5°56′02″E
temp.,
°C
wind,
m/s
gust,
m/s
humid.,
%
clouds,
%
prec.,
mm/h
press.,
hPa
HPBL,
m
10 august, wed
wed1023:00+18ne512521 0.0 1025250
02:00+15ne311630 0.0 1025195
05:00+14ne35663 0.0 102567
08:00+18ene274822 0.0 1025192
11:00+26e572875 0.0 10241696
14:00+29e56245 0.0 10222174
17:00+29ene56232 0.0 10212471
20:00+27ene57270 0.0 1021636
11 august, thu
thu1123:00+18ene23470 0.0 102229
02:00+16ne22485 0.0 102211
05:00+15ne22510 0.0 102211
08:00+19ene12410 0.0 102285
11:00+26ese56260 0.0 10211661
14:00+29e56201 0.0 10202214
17:00+30e66185 0.0 10182396
20:00+27e5823100 0.0 1018477
12 august, fri
fri1223:00+19ne2240100 0.0 101913
02:00+17ne22465 0.0 102011
05:00+16ne22465 0.0 101911
08:00+20ene22355 0.0 101987
11:00+27e45225 0.0 10181656
14:00+31e55192 0.0 10162419
17:00+31ene65190 0.0 10152568
20:00+28ene47240 0.0 1015385
13 august, sat
sat1323:00+19ene23415 0.0 101725
02:00+17ne22413 0.0 101714
05:00+15e114727 0.0 101711
08:00+19e23385 0.0 101896
11:00+27ese44251 0.0 10171388
14:00+30e44194 0.0 10172344
17:00+31e43171 0.0 10162567
20:00+28e57225 0.0 1016368
14 august, sun
sun1423:00+18e22420 0.0 101711
02:00+17ne11480 0.0 101711
05:00+16ene22477 0.0 101612
08:00+20e123833 0.0 101665
11:00+28se342271 0.0 10151114
14:00+31se331684 0.0 10132821
17:00+32se3315100 0.0 10113102
20:00+28ese4821100 0.0 1010283